Location: Qu�bec
(46.8000°N, 71.2500°W)
Time: 03:43:31
(UTC-04:00)

ISS - Visible Passes

Search period start: 23 October 2017 00:00
Search period end: 02 November 2017 00:00
Orbit: 401 x 408 km, 51.6° (Epoch: 23 October)

Date Brightness Start Highest point End Pass type
(mag) Time Alt. Az. Time Alt. Az. Time Alt. Az.
29 Oct -1.0 06:23:37 10° S 06:25:55 18° SE 06:28:13 10° E visible
30 Oct -0.5 05:33:15 10° SE 05:33:45 10° SE 05:34:15 10° ESE visible
31 Oct -2.4 06:14:17 10° SSW 06:17:18 36° SE 06:20:20 10° ENE visible
01 Nov -1.6 05:23:56 18° SSE 05:25:02 21° SE 05:27:36 10° E visible
